Location: Laterina
(43.5167°N, 11.7167°E)
Time: 09:45:56
(UTC+00:00)

Cosmos 1125 Rocket - Visible Passes

Search period start: 18 June 2021 00:00
Search period end: 28 June 2021 00:00
Orbit: 758 x 779 km, 74.0° (Epoch: 18 June)

Date Brightness Start Highest point End Pass type
(mag) Time Alt. Az. Time Alt. Az. Time Alt. Az.
18 Jun 6.2 00:40:31 10° NNE 00:43:55 17° NE 00:47:20 10° E visible
18 Jun 3.5 02:21:20 10° NNW 02:26:36 74° WSW 02:31:51 10° SSE visible
19 Jun 6.5 00:05:10 10° NNE 00:06:35 11° NE 00:07:59 10° ENE visible
19 Jun 3.9 01:44:27 10° NNW 01:49:43 68° ENE 01:54:57 10° SSE visible
20 Jun 4.8 01:07:44 10° N 01:12:42 41° ENE 01:17:41 10° SE visible
20 Jun 4.5 02:50:13 10° NW 02:54:33 26° W 02:58:53 10° SSW visible
21 Jun 5.5 00:31:13 10° N 00:35:36 26° ENE 00:40:00 10° ESE visible
21 Jun 3.9 02:12:53 10° NNW 02:17:51 44° WSW 02:22:50 10° S visible
21 Jun 6.1 23:55:00 10° NNE 23:58:23 17° NE 00:01:46 10° E visible
22 Jun 3.4 01:35:48 10° NNW 01:41:04 75° WSW 01:46:20 10° SSE visible
22 Jun 6.3 23:19:43 10° NNE 23:21:02 11° NE 23:22:21 10° ENE visible
23 Jun 3.8 00:58:55 10° NNW 01:04:11 67° ENE 01:09:04 12° SSE visible
23 Jun 5.1 02:42:32 10° WNW 02:45:38 16° W 02:48:44 10° SW visible
24 Jun 4.7 00:22:12 10° N 00:27:11 40° ENE 00:31:53 11° SE visible
24 Jun 4.6 02:04:41 10° NW 02:09:02 27° W 02:12:05 16° SW visible
24 Jun 5.4 23:45:41 10° N 23:50:04 26° ENE 23:54:27 10° ESE visible
25 Jun 3.9 01:27:20 10° NNW 01:32:20 45° WSW 01:35:02 25° SSW visible
25 Jun 5.9 23:09:29 10° NNE 23:12:51 17° NE 23:16:12 10° E visible
26 Jun 3.4 00:50:16 10° NNW 00:55:32 76° WSW 00:58:05 31° S visible
26 Jun 6.2 22:34:16 10° NNE 22:35:30 11° NE 22:36:44 10° ENE visible
27 Jun 3.8 00:13:23 10° NNW 00:18:39 66° ENE 00:21:13 30° SE visible
27 Jun 5.1 01:56:57 10° WNW 02:00:07 16° W 02:01:27 15° WSW visible
27 Jun 4.6 23:36:40 10° N 23:41:39 40° ENE 23:44:26 23° ESE visible
